Location: �couen
(49.0206°N, 2.3831°E)
Time: 06:43:52
(UTC+00:00)

Cosmos 1758 - Pass Details

Date: 07 June 2022
Orbit: 538 x 557 km, 82.5° (Epoch: 03 July)

Event Time Altitude Azimuth Distance (km) Brightness Sun altitude
Rises 22:52:37 0° 340° (NNW) 2,728 8.6 -17.0°
Reaches altitude 10° 22:54:59 10° 329° (NNW) 1,833 7.1 -17.1°
Maximum altitude 22:58:27 28° 270° (W) 1,048 4.8 -17.3°
Enters shadow 23:00:26 19° 226° (SW) 1,354 5.0 -17.3°
